Location: Obersdorf
(47.4079°N, 10.2781°E)
Time: 01:51:18
(UTC+01:00)

XW-2C - Pass Details

Date: 09 December 2021
Orbit: 503 x 523 km, 97.5° (Epoch: 16 January)

Event Time Altitude Azimuth Distance (km) Brightness Sun altitude
Rises 17:18:29 0° 164° (SSE) 2,619 ? -8.3°
Reaches altitude 10° 17:20:33 10° 163° (SSE) 1,741 ? -8.6°
Maximum altitude 17:24:19 83° 75° (ENE) 530 ? -9.1°
Drops below altitude 10° 17:28:08 10° 349° (NNW) 1,768 ? -9.7°
Sets 17:30:15 0° 348° (NNW) 2,664 ? -10.1°
